This is the latest recevied weather packets stored in our database for station/object AE5EW. If no packets are shown the sender has not sent any weather packets the latest 10 day(s).
| Time | Temp. | Humidity | Pressure | Rain* | Wind** | Luminosity | Snow |
|---|---|---|---|---|---|---|---|
| 1788132044 | 30° C | 75% | 1018 hPa | 0 mm | - | - | - |
| 1788131739 | 30.56° C | 74% | 1018.1 hPa | 0 mm | - | - | - |
| 1788131438 | 30.56° C | 74% | 1018.1 hPa | 0 mm | - | - | - |
| 1788131134 | 30.56° C | 72% | 1018 hPa | 0 mm | - | - | - |
| 1788130829 | 30.56° C | 71% | 1018.1 hPa | 0 mm | - | - | - |
| 1788130524 | 31.11° C | 71% | 1018.1 hPa | 0 mm | - | - | - |
| 1788130223 | 31.11° C | 70% | 1018 hPa | 0 mm | - | - | - |
| 1788129922 | 31.11° C | 68% | 1018 hPa | 0 mm | - | - | - |
| 1788129619 | 31.11° C | 68% | 1017.8 hPa | 0 mm | - | - | - |
| 1788129316 | 31.11° C | 67% | 1017.9 hPa | 0 mm | - | - | - |
| 1788129016 | 31.67° C | 66% | 1018 hPa | 0 mm | - | - | - |
| 1788128710 | 31.67° C | 66% | 1017.9 hPa | 0 mm | - | - | - |
| 1788128406 | 31.67° C | 65% | 1018.2 hPa | 0 mm | - | - | - |
| 1788128102 | 32.22° C | 63% | 1018 hPa | 0 mm | - | - | - |
| 1788127798 | 32.78° C | 63% | 1018.1 hPa | 0 mm | - | - | - |
| 1788127497 | 32.78° C | 64% | 1018.2 hPa | 0 mm | - | - | - |
| 1788127194 | 33.33° C | 62% | 1018 hPa | 0 mm | - | - | - |
| 1788126890 | 33.33° C | 61% | 1018.3 hPa | 0 mm | - | - | - |
| 1788126584 | 33.33° C | 61% | 1018.1 hPa | 0 mm | - | - | - |
| 1788126279 | 33.33° C | 64% | 1018.3 hPa | 0 mm | - | - | - |
| 1788125974 | 32.78° C | 63% | 1018.4 hPa | 0 mm | - | - | - |
| 1788125670 | 32.78° C | 65% | 1018.2 hPa | 0 mm | - | - | - |
| 1788125365 | 32.78° C | 61% | 1018 hPa | 0 mm | - | - | - |
| 1788125060 | 33.33° C | 61% | 1018 hPa | 0 mm | - | - | - |
| 1788124760 | 32.78° C | 62% | 1018.1 hPa | 0 mm | - | - | - |
* Rain latest hour (hover to see other rain measurements)
** Current wind speed in m/s (hover to see current wind gust speed)